SVYATOBOR 1 (RS60S)

Last updated on Mon Nov 03 2025 00:03:22 GMT+0000 (Coordinated Universal Time)

1 57187U 23091X 25306.52565141 .00010332 00000+0 45924-3 0 9993 2 57187 97.5441 4.4303 0010963 160.8945 199.2704 15.21656248129785
UTC large
Height (km)
Speed (km/s)
/
Latitude / Longitude
Inclination (degrees)
Orbital Period (minutes)
Azimuth
Elevation
Range (km)
Doppler Factor

Next 0 passes for location: London (51.5072 / 0.1276)

Sorry there are no passes over London.